This is the latest recevied weather packets stored in our database for station/object N4PWG. If no packets are shown the sender has not sent any weather packets the latest 10 day(s).
| Time | Temp. | Humidity | Pressure | Rain* | Wind** | Luminosity | Snow |
|---|---|---|---|---|---|---|---|
| 1777851654 | 23.33° C | 40% | 1031.4 hPa | 0 mm | - | 48 W/m² | - |
| 1777851351 | 23.33° C | 41% | 1031.5 hPa | 0 mm | - | 63 W/m² | - |
| 1777851047 | 22.78° C | 39% | 1031.6 hPa | 0 mm | - | 80 W/m² | - |
| 1777850744 | 23.33° C | 39% | 1031.3 hPa | 0 mm | - | 84 W/m² | - |
| 1777850441 | 23.33° C | 37% | 1031.8 hPa | 0 mm | - | 111 W/m² | - |
| 1777850139 | 23.33° C | 37% | 1031.6 hPa | 0 mm | - | 108 W/m² | - |
| 1777849835 | 23.33° C | 37% | 1031.6 hPa | 0 mm | - | 115 W/m² | - |
| 1777849532 | 23.89° C | 38% | 1031.8 hPa | 0 mm | - | 136 W/m² | - |
| 1777849230 | 23.89° C | 37% | 1032.1 hPa | 0 mm | - | 140 W/m² | - |
| 1777848926 | 23.89° C | 37% | 1032 hPa | 0 mm | - | 170 W/m² | - |
| 1777848621 | 23.89° C | 38% | 1032 hPa | 0 mm | - | 163 W/m² | - |
| 1777848319 | 23.89° C | 38% | 1032.2 hPa | 0 mm | - | 185 W/m² | - |
| 1777848017 | 23.89° C | 37% | 1032 hPa | 0 mm | - | 197 W/m² | - |
| 1777847715 | 23.89° C | 37% | 1032.3 hPa | 0 mm | - | 213 W/m² | - |
| 1777847410 | 23.89° C | 36% | 1032.2 hPa | 0 mm | - | 237 W/m² | - |
| 1777847108 | 23.89° C | 37% | 1032.2 hPa | 0 mm | - | 249 W/m² | - |
| 1777846806 | 23.33° C | 38% | 1032 hPa | 0 mm | - | 246 W/m² | - |
| 1777846504 | 23.89° C | 35% | 1032.3 hPa | 0 mm | - | 255 W/m² | - |
| 1777846201 | 23.89° C | 36% | 1032.3 hPa | 0 mm | - | 269 W/m² | - |
| 1777845897 | 23.33° C | 37% | 1032.2 hPa | 0 mm | - | 304 W/m² | - |
| 1777845594 | 23.89° C | 37% | 1032.3 hPa | 0 mm | - | 291 W/m² | - |
| 1777845291 | 23.89° C | 37% | 1032.4 hPa | 0 mm | - | 329 W/m² | - |
| 1777844989 | 24.44° C | 36% | 1032.5 hPa | 0 mm | - | 365 W/m² | - |
| 1777844687 | 24.44° C | 36% | 1032.6 hPa | 0 mm | - | 411 W/m² | - |
| 1777844383 | 24.44° C | 37% | 1032.4 hPa | 0 mm | - | 392 W/m² | - |
* Rain latest hour (hover to see other rain measurements)
** Current wind speed in m/s (hover to see current wind gust speed)